[Date Prev][Date Next][Thread Prev][Thread Next] - [Date Index][Thread Index][Author Index]
MIR Keps 8-6-00 ~ update yesterdays keps by 45 sec's ~
- Subject: [sarex] MIR Keps 8-6-00 ~ update yesterdays keps by 45 sec's ~
- From: "Dr Dave Larsen [ PhD ]" <doc@xxxxxxxxxxx>
- Date: Thu, 8 Jun 2000 02:16:51 -0700
MIR
1 16609U 86017A 00160.09404481 .00031868 00000-0 30663-3 0 7200
2 16609 51.6509 305.8032 0012980 24.9127 335.2513 15.66156317817702
----
Via the sarex mailing list at AMSAT.ORG courtesy of AMSAT-NA.
To unsubscribe, send "unsubscribe sarex" to Majordomo@amsat.org
AMSAT Home